FW1042 Weather Reports


time (UTC)temp
C
wind
direction
speed
KPH
gust
KPH
rain 1hr
cm
rain 24hr
cm
rain mn
cm
humidity
%
barometer
mb
20260509090301 21 300 1.6 6.4 0.00 1.12 0.00 91 1008.5
20260509085802 21 327 3.2 6.4 0.00 1.14 0.00 91 1008.3
20260509085301 21 311 1.6 6.4 0.00 1.14 0.00 91 1008.0
20260509084806 21 36 3.2 14.5 0.00 1.14 0.00 91 1007.1
20260509084553 21 174 6.4 17.7 0.00 1.14 0.00 91 1006.6
20260509083802 21 86 6.4 17.7 0.00 1.14 0.00 91 1006.5
20260509083302 21 138 6.4 16.1 0.00 1.14 0.00 91 1006.6
20260509082801 21 200 6.4 16.1 0.00 1.14 0.00 91 1006.8
20260509082306 21 186 6.4 14.5 0.00 1.14 0.00 91 1007.0
20260509081802 21 148 6.4 14.5 0.00 1.14 0.00 91 1007.0
20260509081304 21 115 8.0 20.9 0.00 1.14 0.00 91 1007.0
20260509080803 21 153 8.0 20.9 0.00 1.14 0.00 91 1007.0
20260509080303 21 148 6.4 16.1 0.00 1.14 0.00 91 1007.3
20260509075803 21 137 4.8 14.5 0.00 1.14 0.00 91 1007.6
20260509075306 21 155 4.8 16.1 0.00 1.14 0.00 91 1008.1
20260509074802 21 211 4.8 16.1 0.00 1.14 0.00 91 1008.4
20260509074608 21 150 4.8 11.3 0.00 1.14 0.00 91 1008.6
20260509073804 21 191 4.8 12.9 0.00 1.14 0.00 91 1008.6
20260509073259 21 198 6.4 12.9 0.00 1.14 0.00 91 1008.9
20260509072800 21 172 6.4 12.9 0.00 1.14 0.00 91 1009.1
20260509072259 21 155 4.8 12.9 0.00 1.14 0.00 91 1009.4
20260509071759 21 199 4.8 11.3 0.00 1.14 0.00 90 1009.5
20260509071300 21 186 3.2 12.9 0.00 1.14 0.00 90 1009.5
20260509070800 21 176 3.2 12.9 0.00 1.14 0.00 90 1009.6
20260509070304 21 147 3.2 14.5 0.00 1.14 0.00 90 1009.9
20260509065800 21 188 4.8 14.5 0.00 1.14 0.00 90 1009.9
20260509065256 21 196 3.2 12.9 0.00 1.14 0.00 90 1009.9
20260509064756 21 184 3.2 12.9 0.00 1.14 0.00 90 1010.0
20260509064256 21 205 1.6 9.7 0.00 1.14 0.00 89 1010.2
20260509063756 21 206 1.6 9.7 0.00 1.14 0.00 89 1010.1
20260509063256 21 252 3.2 9.7 0.00 1.14 0.00 89 1010.4
20260509062754 21 171 3.2 9.7 0.00 1.14 0.00 89 1010.1
20260509062545 21 154 3.2 12.9 0.00 1.14 0.00 89 1009.9
20260509061754 21 171 3.2 12.9 0.00 1.14 0.00 89 1009.8
20260509061555 21 206 4.8 12.9 0.00 1.14 0.00 88 1009.7
20260509060754 21 154 6.4 16.1 0.00 1.14 0.00 88 1009.8
20260509060253 21 187 6.4 16.1 0.00 1.14 0.00 88 1009.4
20260509055754 21 180 3.2 14.5 0.00 1.14 0.00 88 1009.7
20260509055253 21 188 4.8 11.3 0.00 1.14 0.00 87 1009.8
20260509054754 21 173 3.2 11.3 0.00 1.14 0.00 87 1009.7
20260509054254 21 152 3.2 8.0 0.00 1.14 0.00 86 1009.8
20260509053754 21 159 1.6 6.4 0.00 1.14 0.00 86 1010.1
20260509053253 21 188 0.0 3.2 0.00 1.14 0.00 85 1010.5
20260509052754 21 190 0.0 3.2 0.00 1.14 0.00 85 1010.7
20260509052255 21 186 0.0 3.2 0.00 1.14 0.00 85 1010.9
20260509052140 22 211 1.6 4.8 0.00 1.14 0.00 85 1010.8
20260509052134 21 198 0.0 3.2 0.00 1.14 0.00 85 1010.8
20260509050755 22 194 3.2 8.0 0.00 1.14 0.00 85 1011.1
20260509050255 22 355 4.8 9.7 0.00 1.14 0.00 85 1011.6
20260509050113 21 337 3.2 9.7 0.00 1.14 1.14 85 1011.7
20260509045253 21 351 1.6 8.0 0.00 1.14 1.14 84 1011.5
20260509044754 22 242 1.6 6.4 0.00 1.14 1.14 84 1010.6
20260509044257 22 214 1.6 6.4 0.00 1.14 1.14 84 1010.2
20260509043754 22 150 3.2 9.7 0.00 1.14 1.14 84 1010.0
20260509043253 22 159 4.8 9.7 0.00 1.14 1.14 83 1009.6
20260509042752 22 213 4.8 12.9 0.00 1.14 1.14 83 1009.6
20260509042253 22 197 4.8 12.9 0.00 1.14 1.14 83 1009.5
20260509041753 22 203 3.2 9.7 0.00 1.14 1.14 83 1009.6
20260509041253 22 180 3.2 8.0 0.00 1.14 1.14 83 1009.7
20260509040753 22 173 3.2 12.9 0.00 1.14 1.14 83 1009.9
20260509040553 22 125 3.2 12.9 0.00 1.14 1.14 83 1009.9
20260509040054 22 168 4.8 12.9 0.00 1.14 1.14 83 1009.8
20260509035251 22 185 6.4 12.9 0.00 1.14 1.14 82 1009.4
20260509034751 22 131 6.4 14.5 0.00 1.14 1.14 82 1009.1
20260509034251 22 153 6.4 14.5 0.00 1.14 1.14 82 1009.3
20260509033752 22 107 4.8 11.3 0.00 1.14 1.14 82 1009.3
20260509033251 22 126 3.2 9.7 0.00 1.14 1.14 82 1009.3
20260509032751 22 153 0.0 8.0 0.00 1.14 1.14 82 1009.7
20260509032251 22 28 0.0 0.0 0.00 1.14 1.14 82 1010.4
20260509031751 22 28 0.0 3.2 0.00 1.14 1.14 82 1010.6
20260509031250 22 28 0.0 3.2 0.00 1.14 1.14 82 1010.4
20260509030751 22 38 0.0 3.2 0.00 1.14 1.14 82 1010.4
20260509030255 22 114 0.0 3.2 0.00 1.14 1.14 82 1010.1
20260509025751 22 114 0.0 3.2 0.00 1.14 1.14 82 1009.9
20260509025546 22 98 1.6 4.8 0.00 1.14 1.14 82 1009.9
20260509024751 22 83 1.6 4.8 0.00 1.14 1.14 82 1009.7
20260509024251 22 107 1.6 6.4 0.00 1.14 1.14 82 1009.6
20260509023748 22 146 1.6 6.4 0.00 1.14 1.14 81 1009.4
20260509023239 22 148 0.0 1.6 0.00 1.14 1.14 81 1009.3
20260509022737 22 192 1.6 4.8 0.00 1.14 1.14 81 1009.2
20260509022240 22 194 3.2 6.4 0.00 1.14 1.14 81 1008.8
20260509021737 22 123 3.2 8.0 0.00 1.14 1.14 80 1008.5
20260509021236 22 162 4.8 9.7 0.00 1.14 1.14 80 1008.1
20260509020736 22 90 4.8 9.7 0.00 1.14 1.14 80 1008.1
20260509020238 22 136 4.8 12.9 0.00 1.14 1.14 79 1008.1
20260509015737 22 144 3.2 12.9 0.00 1.14 1.14 79 1008.4
20260509015236 22 158 3.2 9.7 0.00 1.14 1.14 79 1008.4
20260509014736 22 186 4.8 9.7 0.00 1.14 1.14 78 1008.3
20260509014236 22 160 3.2 11.3 0.00 1.14 1.14 78 1008.1
20260509013737 22 156 3.2 11.3 0.00 1.14 1.14 77 1008.0
20260509013237 23 156 3.2 11.3 0.00 1.14 1.14 77 1008.1
20260509012737 23 149 1.6 11.3 0.00 1.14 1.14 77 1008.2
20260509012535 23 157 3.2 8.0 0.00 1.14 1.14 76 1008.3
20260509011737 23 175 3.2 8.0 0.00 1.14 1.14 76 1008.3
20260509011235 23 143 3.2 9.7 0.00 1.14 1.14 75 1008.3
20260509010734 23 150 3.2 9.7 0.00 1.14 1.14 75 1008.4
20260509010235 23 159 4.8 9.7 0.00 1.14 1.14 75 1008.2
20260509005734 23 194 4.8 12.9 0.00 1.14 1.14 75 1008.3
20260509005235 23 177 4.8 12.9 0.00 1.14 1.14 74 1008.2
20260509004734 23 140 4.8 11.3 0.00 1.14 1.14 74 1008.1
20260509004238 23 135 4.8 11.3 0.00 1.14 1.14 73 1008.0
20260509003735 23 182 4.8 11.3 0.00 1.14 1.14 73 1007.8
20260509003230 23 141 4.8 11.3 0.00 1.14 1.14 73 1007.8
20260509002728 24 156 4.8 11.3 0.00 1.14 1.14 72 1007.7
20260509002227 24 128 4.8 11.3 0.00 1.14 1.14 71 1007.8
20260509001726 24 188 4.8 12.9 0.00 1.14 1.14 71 1007.6
20260509001227 24 182 4.8 12.9 0.00 1.14 1.14 70 1007.7
20260509000728 24 173 4.8 12.9 0.00 1.14 1.14 69 1007.6
20260509000227 25 190 4.8 16.1 0.00 1.14 1.14 69 1007.8
20260509000050 25 114 6.4 16.1 0.00 1.14 1.14 69 1007.8
20260508235230 25 173 6.4 14.5 0.00 1.14 1.14 69 1007.8
20260508234725 25 124 6.4 16.1 0.00 1.14 1.14 69 1007.9
20260508234224 25 206 6.4 16.1 0.00 1.14 1.14 69 1008.0
20260508233722 25 167 6.4 14.5 0.00 1.14 1.14 69 1008.1
20260508233223 25 192 6.4 14.5 0.00 1.14 1.14 69 1008.0
20260508232716 25 182 6.4 16.1 0.00 1.14 1.14 68 1008.0
20260508232213 25 170 6.4 16.1 0.00 1.14 1.14 68 1008.0
20260508231715 25 180 6.4 14.5 0.00 1.14 1.14 66 1008.1
20260508231210 26 207 6.4 16.1 0.00 1.14 1.14 65 1008.2
20260508230711 26 190 6.4 16.1 0.00 1.14 1.14 65 1008.2
20260508230211 26 202 6.4 12.9 0.00 1.14 1.14 65 1008.1
20260508225711 26 105 6.4 12.9 0.00 1.14 1.14 65 1008.1
20260508225209 26 140 6.4 17.7 0.00 1.14 1.14 66 1008.1
20260508224710 26 214 6.4 17.7 0.00 1.14 1.14 65 1008.2
20260508224213 26 205 4.8 12.9 0.00 1.14 1.14 64 1008.2
20260508223708 26 217 6.4 14.5 0.00 1.14 1.14 64 1008.3
20260508223209 26 242 6.4 14.5 0.00 1.14 1.14 64 1008.2
20260508222710 26 165 4.8 14.5 0.00 1.14 1.14 63 1008.2
20260508222208 26 194 6.4 16.1 0.00 1.14 1.14 63 1008.4
20260508221702 26 261 6.4 16.1 0.00 1.14 1.14 64 1008.2
20260508221156 26 140 4.8 11.3 0.00 1.14 1.14 64 1008.2
20260508220650 26 190 4.8 14.5 0.00 1.14 1.14 63 1008.2
20260508220150 26 167 6.4 14.5 0.00 1.14 1.14 63 1008.1
20260508215654 26 168 8.0 16.1 0.00 1.14 1.14 64 1008.2
20260508215151 26 183 8.0 16.1 0.00 1.14 1.14 65 1008.1
20260508214651 26 126 8.0 16.1 0.00 1.14 1.14 64 1008.1
20260508214152 26 160 8.0 16.1 0.00 1.14 1.14 64 1008.3
20260508213649 26 149 6.4 14.5 0.00 1.14 1.14 62 1008.3
20260508213149 26 158 6.4 12.9 0.00 1.14 1.14 63 1008.2
20260508212647 26 115 8.0 14.5 0.00 1.14 1.14 63 1008.2
20260508212146 26 156 8.0 17.7 0.00 1.14 1.14 63 1008.3
20260508211646 26 171 6.4 17.7 0.00 1.14 1.14 63 1008.2
20260508211435 26 114 6.4 14.5 0.00 1.14 1.14 63 1008.4
20260508210635 26 144 8.0 19.3 0.00 1.14 1.14 65 1008.4
20260508210129 26 185 8.0 19.3 0.00 1.14 1.14 63 1008.7
20260508205625 26 134 6.4 14.5 0.00 1.14 1.14 64 1008.8
20260508205122 26 186 6.4 16.1 0.00 1.14 1.14 64 1009.1
20260508204922 25 109 6.4 16.1 0.00 1.14 1.14 67 1009.2
20260508204121 24 180 6.4 16.1 0.00 1.14 1.14 67 1009.7
20260508203620 24 156 8.0 20.9 0.00 1.14 1.14 67 1009.9
20260508203119 25 186 8.0 20.9 0.00 1.14 1.14 67 1010.1
20260508202619 25 215 6.4 17.7 0.00 1.14 1.14 66 1010.2
20260508202118 25 207 6.4 17.7 0.00 1.14 1.14 66 1010.2
20260508201617 25 181 6.4 17.7 0.00 1.14 1.14 65 1010.2
20260508201116 25 182 6.4 14.5 0.00 1.14 1.14 64 1010.4
20260508200908 25 156 6.4 14.5 0.00 1.14 1.14 64 1010.4
20260508200115 26 141 6.4 14.5 0.00 1.14 1.14 63 1010.4
20260508195619 26 275 6.4 22.5 0.00 1.14 1.14 62 1010.2
20260508195114 26 215 6.4 22.5 0.00 1.14 1.14 62 1010.5
20260508194609 26 206 6.4 19.3 0.00 1.14 1.14 62 1010.4
20260508194104 26 219 6.4 16.1 0.00 1.14 1.14 60 1010.5
20260508193601 26 178 6.4 22.5 0.00 1.14 1.14 59 1010.6
20260508193100 27 217 4.8 22.5 0.00 1.14 1.14 59 1010.5
20260508192602 27 165 6.4 17.7 0.00 1.14 1.14 60 1010.6
20260508192100 26 180 6.4 16.1 0.00 1.14 1.14 60 1010.6
20260508191903 26 165 6.4 14.5 0.00 1.14 1.14 59 1010.6
20260508191101 27 180 4.8 14.5 0.00 1.14 1.14 58 1010.6
20260508190600 27 190 3.2 14.5 0.00 1.14 1.14 59 1010.6
20260508190101 27 59 3.2 14.5 0.00 1.14 1.14 59 1010.6
20260508185600 27 175 4.8 14.5 0.00 1.14 1.14 59 1010.6
20260508185100 26 212 4.8 16.1 0.00 1.14 1.14 61 1010.7
20260508184600 26 230 4.8 16.1 0.00 1.14 1.14 61 1010.7
20260508184101 26 138 4.8 12.9 0.00 1.14 1.14 61 1010.8
20260508183852 26 147 4.8 17.7 0.00 1.14 1.14 63 1010.7
20260508183350 26 284 4.8 17.7 0.00 1.14 1.14 62 1010.9
20260508182700 26 141 4.8 12.9 0.00 1.14 1.14 63 1011.2
20260508182641 26 206 4.8 12.9 0.00 1.14 1.14 61 1011.1
20260508181853 25 185 3.2 9.7 0.00 1.14 1.14 61 1011.3
20260508181057 25 206 4.8 16.1 0.03 1.14 1.14 62 1011.4
20260508180556 25 197 4.8 16.1 0.03 1.14 1.14 62 1011.6
20260508180059 25 149 4.8 11.3 0.03 1.14 1.14 64 1011.6
20260508175555 25 207 4.8 14.5 0.03 1.14 1.14 64 1011.8
20260508175136 24 157 3.2 8.0 0.03 1.14 1.14 62 1011.9
20260508175124 25 138 4.8 14.5 0.03 1.14 1.14 65 1011.8
20260508174051 24 136 4.8 14.5 0.03 1.14 1.14 62 1011.9
20260508173550 24 150 3.2 14.5 0.03 1.14 1.14 64 1012.0
20260508173051 24 178 3.2 8.0 0.03 1.14 1.14 64 1012.1
20260508172550 24 192 4.8 11.3 0.03 1.14 1.14 64 1012.0
20260508172051 24 160 4.8 11.3 0.03 1.14 1.14 62 1012.3
20260508171549 24 167 4.8 12.9 0.03 1.14 1.14 65 1012.4
20260508171050 23 161 4.8 12.9 0.00 1.12 1.12 64 1012.5
20260508170548 23 147 4.8 16.1 0.00 1.12 1.12 64 1012.7
20260508170048 23 218 6.4 16.1 0.00 1.12 1.12 64 1012.9
20260508165549 23 128 6.4 16.1 0.00 1.12 1.12 63 1012.9
20260508165052 23 180 6.4 16.1 0.00 1.12 1.12 65 1013.2
20260508164549 23 222 6.4 16.1 0.00 1.12 1.12 65 1013.1
20260508164046 23 152 4.8 14.5 0.00 1.12 1.12 66 1013.1
20260508163547 22 169 4.8 12.9 0.00 1.12 1.12 68 1013.2
20260508163047 22 103 4.8 11.3 0.00 1.12 1.12 70 1013.3
20260508162844 21 169 4.8 11.3 0.00 1.12 1.12 70 1013.4
20260508162047 21 169 4.8 12.9 0.00 1.12 1.12 70 1013.4
20260508161835 21 200 4.8 12.9 0.00 1.12 1.12 70 1013.7
20260508161041 21 173 4.8 9.7 0.00 1.12 1.12 71 1013.7
20260508160541 21 185 4.8 12.9 0.00 1.12 1.12 72 1013.9
20260508160040 21 193 4.8 12.9 0.00 1.12 1.12 73 1013.7
20260508155541 20 188 4.8 9.7 0.00 1.12 1.12 75 1013.8
20260508155040 20 157 3.2 9.7 0.00 1.12 1.12 75 1014.0
20260508154540 20 109 3.2 11.3 0.00 1.12 1.12 76 1014.0
20260508154041 20 213 3.2 11.3 0.00 1.12 1.12 75 1013.8
20260508153545 20 159 3.2 9.7 0.00 1.12 1.12 75 1014.0
20260508153329 20 169 3.2 6.4 0.00 1.12 1.12 76 1014.0
20260508152539 20 116 3.2 11.3 0.00 1.12 1.12 76 1014.2
20260508152045 19 199 4.8 11.3 0.00 1.12 1.12 77 1014.2
20260508151536 19 197 4.8 11.3 0.00 1.12 1.12 79 1014.2
20260508151328 19 145 4.8 11.3 0.00 1.12 1.12 82 1014.3
20260508150530 18 200 3.2 11.3 0.00 1.12 1.12 85 1014.1
20260508150030 18 171 3.2 11.3 0.00 1.12 1.12 87 1014.1
20260508145531 18 86 3.2 9.7 0.00 1.12 1.12 89 1014.2
20260508145035 18 128 3.2 9.7 0.00 1.12 1.12 90 1014.2
20260508144531 17 180 3.2 9.7 0.00 1.12 1.12 91 1014.3
20260508144030 17 207 3.2 8.0 0.00 1.12 1.12 92 1014.0
20260508143530 17 174 1.6 8.0 0.00 1.12 1.12 93 1014.5
20260508143331 17 169 0.0 4.8 0.00 1.12 1.12 93 1014.5
20260508142531 17 142 0.0 4.8 0.00 1.12 1.12 93 1014.6
20260508142025 17 222 0.0 3.2 0.00 1.12 1.12 93 1014.6
20260508141524 17 196 1.6 4.8 0.00 1.12 1.12 94 1014.5
20260508141025 17 136 0.0 4.8 0.00 1.12 1.12 94 1014.3
20260508140524 17 170 0.0 3.2 0.00 1.12 1.12 94 1014.5
20260508140022 16 112 0.0 0.0 0.00 1.12 1.12 95 1014.6
20260508135521 16 112 0.0 0.0 0.00 1.12 1.12 94 1014.5
20260508135311 16 112 0.0 1.6 0.00 1.12 1.12 94 1014.5
20260508134520 16 115 0.0 3.2 0.00 1.12 1.12 94 1014.5
20260508134051 16 132 1.6 6.4 0.00 1.12 1.12 95 1014.7
20260508134040 16 108 0.0 3.2 0.00 1.12 1.12 94 1014.5
20260508133930 16 161 0.0 3.2 0.00 1.12 1.12 95 1014.5
20260508133827 16 132 0.0 1.6 0.00 1.12 1.12 94 1014.5
20260508133725 16 132 1.6 4.8 0.00 1.12 1.12 94 1014.3
20260508132016 16 132 1.6 6.4 0.00 1.12 1.12 95 1014.7
20260508131516 16 183 3.2 8.0 0.00 1.12 1.12 94 1014.6
20260508131016 16 151 3.2 8.0 0.00 1.12 1.12 94 1014.2
20260508130516 16 155 3.2 6.4 0.00 1.12 1.12 95 1014.4
20260508130017 16 168 3.2 9.7 0.00 1.12 1.12 94 1014.5
20260508125516 16 145 3.2 9.7 0.00 1.12 1.12 94 1014.2
20260508125015 16 158 1.6 6.4 0.00 1.12 1.12 94 1014.3
20260508124514 16 150 1.6 6.4 0.00 1.12 1.12 94 1014.6
20260508124014 16 190 1.6 6.4 0.00 1.12 1.12 94 1014.7
20260508123514 15 148 0.0 3.2 0.00 1.12 1.12 94 1014.4
20260508123316 15 80 1.6 3.2 0.00 1.12 1.12 94 1014.5
20260508122513 15 117 1.6 8.0 0.00 1.12 1.12 94 1014.9
20260508122014 15 206 1.6 8.0 0.03 1.12 1.12 94 1015.2
20260508121514 15 150 0.0 4.8 0.20 1.12 1.12 94 1014.7
20260508121014 15 156 0.0 1.6 0.20 1.12 1.12 94 1014.6
20260508120515 15 134 0.0 0.0 0.20 1.12 1.12 94 1014.7
20260508120015 15 134 0.0 0.0 0.20 1.12 1.12 94 1014.7
20260508115515 15 134 0.0 1.6 0.23 1.12 1.12 94 1014.8
20260508115312 15 134 0.0 1.6 0.28 1.12 1.12 94 1014.6
20260508114514 15 227 0.0 1.6 0.30 1.12 1.12 93 1014.5
20260508114317 15 231 0.0 3.2 0.36 1.12 1.12 93 1014.7
20260508113508 15 231 1.6 6.4 0.36 1.12 1.12 93 1014.5
20260508113008 15 227 3.2 11.3 0.41 1.12 1.12 93 1014.4
20260508112508 15 172 4.8 11.3 0.53 1.12 1.12 93 1014.2
20260508112009 15 168 3.2 11.3 0.86 1.09 1.12 93 1014.1
20260508111803 15 137 1.6 4.8 0.86 0.91 0.97 93 1014.1
20260508111008 15 206 1.6 4.8 0.86 0.91 0.91 92 1014.5
20260508110506 15 142 1.6 6.4 0.86 0.91 0.91 92 1013.8
20260508110115 15 185 4.8 9.7 0.84 0.89 0.91 92 1013.9
20260508110056 15 157 3.2 9.7 0.86 0.91 0.91 92 1013.9
20260508105301 16 188 4.8 8.0 0.79 0.84 0.84 91 1014.1
20260508104505 16 150 1.6 8.0 0.76 0.81 0.81 91 1014.7
20260508104006 16 192 1.6 4.8 0.71 0.76 0.79 91 1015.1
20260508103506 16 174 1.6 4.8 0.71 0.76 0.76 90 1014.9
20260508103005 16 186 1.6 8.0 0.66 0.71 0.71 90 1014.5
20260508102506 16 155 3.2 8.0 0.53 0.58 0.58 90 1014.3
20260508102006 16 138 0.0 6.4 0.18 0.23 0.30 90 1014.1
20260508101856 16 142 1.6 6.4 0.00 0.05 0.05 90 1014.3
20260508101852 16 238 0.0 4.8 0.00 0.05 0.08 90 1014.7
20260508100807 16 185 1.6 6.4 0.00 0.05 0.05 90 1014.4
20260508100307 16 182 1.6 6.4 0.05 0.05 0.05 90 1013.7
20260508095506 16 197 1.6 6.4 0.05 0.05 0.05 90 1013.5
20260508095006 16 169 1.6 6.4 0.05 0.05 0.05 90 1013.4
20260508094504 16 151 1.6 6.4 0.05 0.05 0.05 90 1013.4
20260508094004 16 174 1.6 3.2 0.05 0.05 0.05 89 1013.5
20260508093506 16 149 1.6 3.2 0.05 0.05 0.05 89 1013.5
20260508093004 16 122 1.6 4.8 0.05 0.05 0.05 89 1013.5
20260508092503 16 153 1.6 6.4 0.05 0.05 0.05 89 1013.5
20260508092002 16 193 3.2 6.4 0.05 0.05 0.05 89 1013.7
20260508091502 16 172 3.2 6.4 0.05 0.05 0.05 88 1013.5
20260508091002 16 192 1.6 4.8 0.05 0.05 0.05 88 1013.6